Time,TemperatureF,DewpointF,PressureIn,WindDirection,WindDirectionDegrees,WindSpeedMPH,WindSpeedGustMPH,Humidity,HourlyPrecipIn,Conditions,Clouds,dailyrainin,SoftwareType,DateUTC
2013-02-27 00:04:00,51.7,19.5,30.24,North,0,0.0,0.0,28,0.00,,,0.00,WUHU216HW,2013-02-27 08:04:00,
2013-02-27 00:09:00,51.0,22.0,30.23,North,0,0.0,0.0,32,0.00,,,0.00,WUHU216HW,2013-02-27 08:09:00,
2013-02-27 00:14:00,50.3,21.3,30.24,North,0,0.0,0.0,32,0.00,,,0.00,WUHU216HW,2013-02-27 08:14:00,
2013-02-27 00:19:00,49.9,22.4,30.23,North,0,0.0,0.0,34,0.00,,,0.00,WUHU216HW,2013-02-27 08:19:00,
2013-02-27 00:24:00,49.6,22.1,30.23,North,0,0.0,0.0,34,0.00,,,0.00,WUHU216HW,2013-02-27 08:24:00,
2013-02-27 00:29:00,49.4,21.2,30.23,North,0,0.0,0.0,33,0.00,,,0.00,WUHU216HW,2013-02-27 08:29:00,
2013-02-27 00:34:00,49.2,21.8,30.23,North,0,0.0,0.0,34,0.00,,,0.00,WUHU216HW,2013-02-27 08:34:00,
2013-02-27 00:39:00,49.2,21.0,30.23,North,0,0.0,0.0,33,0.00,,,0.00,WUHU216HW,2013-02-27 08:39:00,
2013-02-27 00:44:00,49.4,20.5,30.23,North,0,0.0,0.0,32,0.00,,,0.00,WUHU216HW,2013-02-27 08:44:00,
2013-02-27 00:49:00,50.7,20.9,30.23,North,0,0.0,0.0,31,0.00,,,0.00,WUHU216HW,2013-02-27 08:49:00,
2013-02-27 00:55:00,51.0,20.4,30.23,North,0,0.0,0.0,30,0.00,,,0.00,WUHU216HW,2013-02-27 08:55:00,
2013-02-27 01:00:00,50.6,20.9,30.23,North,0,0.0,0.0,31,0.00,,,0.00,WUHU216HW,2013-02-27 09:00:00,
2013-02-27 01:05:00,49.8,22.3,30.23,North,0,0.0,0.0,34,0.00,,,0.00,WUHU216HW,2013-02-27 09:05:00,
2013-02-27 01:10:00,49.5,21.4,30.23,North,0,0.0,0.0,33,0.00,,,0.00,WUHU216HW,2013-02-27 09:10:00,
2013-02-27 01:15:00,49.1,21.0,30.23,North,0,0.0,0.0,33,0.00,,,0.00,WUHU216HW,2013-02-27 09:15:00,
2013-02-27 01:20:00,48.6,20.6,30.23,North,0,0.0,0.0,33,0.00,,,0.00,WUHU216HW,2013-02-27 09:20:00,
2013-02-27 01:25:00,47.9,22.0,30.23,North,0,0.0,0.0,36,0.00,,,0.00,WUHU216HW,2013-02-27 09:25:00,
2013-02-27 01:30:00,47.3,22.8,30.23,North,0,0.0,0.0,38,0.00,,,0.00,WUHU216HW,2013-02-27 09:30:00,
2013-02-27 01:35:00,46.4,22.0,30.23,North,0,0.0,0.0,38,0.00,,,0.00,WUHU216HW,2013-02-27 09:35:00,
2013-02-27 01:40:00,47.0,22.5,30.23,North,0,0.0,0.0,38,0.00,,,0.00,WUHU216HW,2013-02-27 09:40:00,
2013-02-27 01:45:00,47.5,22.3,30.24,North,0,0.0,0.0,37,0.00,,,0.00,WUHU216HW,2013-02-27 09:45:00,
2013-02-27 01:50:00,47.7,22.5,30.24,North,0,0.0,0.0,37,0.00,,,0.00,WUHU216HW,2013-02-27 09:50:00,
2013-02-27 01:55:00,46.8,22.3,30.24,North,0,0.0,0.0,38,0.00,,,0.00,WUHU216HW,2013-02-27 09:55:00,
2013-02-27 02:00:00,46.4,22.6,30.24,North,0,0.0,0.0,39,0.00,,,0.00,WUHU216HW,2013-02-27 10:00:00,
2013-02-27 02:05:00,46.1,22.3,30.24,North,0,0.0,0.0,39,0.00,,,0.00,WUHU216HW,2013-02-27 10:05:00,
2013-02-27 02:11:00,45.9,22.1,30.24,North,0,0.0,0.0,39,0.00,,,0.00,WUHU216HW,2013-02-27 10:11:00,
2013-02-27 02:16:00,45.5,22.4,30.24,North,0,0.0,0.0,40,0.00,,,0.00,WUHU216HW,2013-02-27 10:16:00,
2013-02-27 02:21:00,45.3,22.2,30.24,North,0,0.0,0.0,40,0.00,,,0.00,WUHU216HW,2013-02-27 10:21:00,
2013-02-27 02:26:00,45.2,22.7,30.24,North,0,0.0,0.0,41,0.00,,,0.00,WUHU216HW,2013-02-27 10:26:00,
2013-02-27 02:31:00,45.3,22.2,30.24,North,0,0.0,0.0,40,0.00,,,0.00,WUHU216HW,2013-02-27 10:31:00,
2013-02-27 02:36:00,45.2,23.3,30.24,North,0,0.0,0.0,42,0.00,,,0.00,WUHU216HW,2013-02-27 10:36:00,
2013-02-27 02:41:00,45.5,24.7,30.24,North,0,0.0,0.0,44,0.00,,,0.00,WUHU216HW,2013-02-27 10:41:00,
2013-02-27 02:46:00,45.7,23.2,30.24,North,0,0.0,0.0,41,0.00,,,0.00,WUHU216HW,2013-02-27 10:46:00,
2013-02-27 02:51:00,45.9,23.3,30.24,North,0,0.0,0.0,41,0.00,,,0.00,WUHU216HW,2013-02-27 10:51:00,
2013-02-27 02:56:00,46.1,21.7,30.24,North,0,0.0,0.0,38,0.00,,,0.00,WUHU216HW,2013-02-27 10:56:00,
2013-02-27 03:02:00,46.2,20.5,30.23,North,0,0.0,0.0,36,0.00,,,0.00,WUHU216HW,2013-02-27 11:02:00,
2013-02-27 03:07:00,46.6,19.5,30.23,North,0,0.0,0.0,34,0.00,,,0.00,WUHU216HW,2013-02-27 11:07:00,
2013-02-27 03:12:00,46.8,20.4,30.23,North,0,0.0,0.0,35,0.00,,,0.00,WUHU216HW,2013-02-27 11:12:00,
2013-02-27 03:17:00,47.0,21.2,30.23,North,0,0.0,0.0,36,0.00,,,0.00,WUHU216HW,2013-02-27 11:17:00,
2013-02-27 03:22:00,46.6,20.2,30.23,North,0,0.0,0.0,35,0.00,,,0.00,WUHU216HW,2013-02-27 11:22:00,
2013-02-27 03:27:00,46.8,21.0,30.24,North,0,0.0,0.0,36,0.00,,,0.00,WUHU216HW,2013-02-27 11:27:00,
2013-02-27 03:32:00,46.2,21.2,30.24,North,0,0.0,0.0,37,0.00,,,0.00,WUHU216HW,2013-02-27 11:32:00,
2013-02-27 03:37:00,46.3,21.8,30.24,North,0,0.0,0.0,38,0.00,,,0.00,WUHU216HW,2013-02-27 11:37:00,
2013-02-27 03:42:00,46.2,21.7,30.24,North,0,0.0,0.0,38,0.00,,,0.00,WUHU216HW,2013-02-27 11:42:00,
2013-02-27 03:47:00,46.7,20.9,30.24,North,0,0.0,0.0,36,0.00,,,0.00,WUHU216HW,2013-02-27 11:47:00,
2013-02-27 03:52:00,46.2,22.4,30.24,North,0,0.0,0.0,39,0.00,,,0.00,WUHU216HW,2013-02-27 11:52:00,
2013-02-27 03:57:00,46.3,21.8,30.24,North,0,0.0,0.0,38,0.00,,,0.00,WUHU216HW,2013-02-27 11:57:00,
2013-02-27 04:03:00,45.6,20.6,30.24,North,0,0.0,0.0,37,0.00,,,0.00,WUHU216HW,2013-02-27 12:03:00,
2013-02-27 04:08:00,45.3,20.3,30.24,North,0,0.0,0.0,37,0.00,,,0.00,WUHU216HW,2013-02-27 12:08:00,
2013-02-27 04:13:00,45.3,21.6,30.24,North,0,0.0,0.0,39,0.00,,,0.00,WUHU216HW,2013-02-27 12:13:00,
2013-02-27 04:18:00,44.9,21.8,30.24,North,0,0.0,0.0,40,0.00,,,0.00,WUHU216HW,2013-02-27 12:18:00,
2013-02-27 04:23:00,44.7,20.4,30.24,North,0,0.0,0.0,38,0.00,,,0.00,WUHU216HW,2013-02-27 12:23:00,
2013-02-27 04:28:00,45.1,20.8,30.24,North,0,0.0,0.0,38,0.00,,,0.00,WUHU216HW,2013-02-27 12:28:00,
2013-02-27 04:33:00,44.5,22.1,30.24,North,0,0.0,0.0,41,0.00,,,0.00,WUHU216HW,2013-02-27 12:33:00,
2013-02-27 04:38:00,44.3,22.4,30.24,North,0,0.0,0.0,42,0.00,,,0.00,WUHU216HW,2013-02-27 12:38:00,
2013-02-27 04:43:00,43.9,21.5,30.24,North,0,0.0,0.0,41,0.00,,,0.00,WUHU216HW,2013-02-27 12:43:00,
2013-02-27 04:48:00,43.9,22.1,30.24,North,0,0.0,0.0,42,0.00,,,0.00,WUHU216HW,2013-02-27 12:48:00,
2013-02-27 04:53:00,43.7,21.9,30.24,North,0,0.0,0.0,42,0.00,,,0.00,WUHU216HW,2013-02-27 12:53:00,
2013-02-27 04:59:00,43.7,22.5,30.24,North,0,0.0,0.0,43,0.00,,,0.00,WUHU216HW,2013-02-27 12:59:00,
2013-02-27 05:04:00,43.7,21.9,30.24,North,0,0.0,0.0,42,0.00,,,0.00,WUHU216HW,2013-02-27 13:04:00,
2013-02-27 05:09:00,43.9,21.6,30.24,North,0,0.0,0.0,41,0.00,,,0.00,WUHU216HW,2013-02-27 13:09:00,
2013-02-27 05:14:00,43.7,22.0,30.24,North,0,0.0,0.0,42,0.00,,,0.00,WUHU216HW,2013-02-27 13:14:00,
2013-02-27 05:19:00,43.7,23.0,30.24,North,0,0.0,0.0,44,0.00,,,0.00,WUHU216HW,2013-02-27 13:19:00,
2013-02-27 05:24:00,43.8,22.0,30.24,North,0,0.0,0.0,42,0.00,,,0.00,WUHU216HW,2013-02-27 13:24:00,
2013-02-27 05:29:00,44.2,21.8,30.24,North,0,0.0,0.0,41,0.00,,,0.00,WUHU216HW,2013-02-27 13:29:00,
2013-02-27 05:34:00,44.9,21.8,30.24,North,0,0.0,0.0,40,0.00,,,0.00,WUHU216HW,2013-02-27 13:34:00,
2013-02-27 05:39:00,44.9,21.8,30.24,North,0,0.0,0.0,40,0.00,,,0.00,WUHU216HW,2013-02-27 13:39:00,
2013-02-27 05:44:00,44.9,21.9,30.24,North,0,0.0,0.0,40,0.00,,,0.00,WUHU216HW,2013-02-27 13:44:00,
2013-02-27 05:49:00,44.6,22.2,30.25,North,0,0.0,0.0,41,0.00,,,0.00,WUHU216HW,2013-02-27 13:49:00,
2013-02-27 05:54:00,44.3,22.4,30.25,North,0,0.0,0.0,42,0.00,,,0.00,WUHU216HW,2013-02-27 13:54:00,
2013-02-27 06:00:00,43.8,23.7,30.25,North,0,0.0,0.0,45,0.00,,,0.00,WUHU216HW,2013-02-27 14:00:00,
2013-02-27 06:05:00,43.4,23.9,30.25,North,0,0.0,0.0,46,0.00,,,0.00,WUHU216HW,2013-02-27 14:05:00,
2013-02-27 06:10:00,43.4,22.8,30.25,North,0,0.0,0.0,44,0.00,,,0.00,WUHU216HW,2013-02-27 14:10:00,
2013-02-27 06:15:00,43.8,22.6,30.26,North,0,0.0,0.0,43,0.00,,,0.00,WUHU216HW,2013-02-27 14:15:00,
2013-02-27 06:20:00,44.1,23.5,30.26,North,0,0.0,0.0,44,0.00,,,0.00,WUHU216HW,2013-02-27 14:20:00,
2013-02-27 06:25:00,44.8,22.3,30.26,North,0,0.0,0.0,41,0.00,,,0.00,WUHU216HW,2013-02-27 14:25:00,
2013-02-27 06:30:00,44.9,23.6,30.27,North,0,0.0,0.0,43,0.00,,,0.00,WUHU216HW,2013-02-27 14:30:00,
2013-02-27 06:35:00,44.2,24.1,30.26,North,0,0.0,0.0,45,0.00,,,0.00,WUHU216HW,2013-02-27 14:35:00,
2013-02-27 06:40:00,43.3,23.3,30.26,North,0,0.0,0.0,45,0.00,,,0.00,WUHU216HW,2013-02-27 14:40:00,
2013-02-27 06:45:00,43.7,24.2,30.27,North,0,0.0,0.0,46,0.00,,,0.00,WUHU216HW,2013-02-27 14:45:00,
2013-02-27 06:50:00,43.3,24.9,30.27,North,0,0.0,0.0,48,0.00,,,0.00,WUHU216HW,2013-02-27 14:50:00,
2013-02-27 06:55:00,43.4,24.4,30.27,North,0,0.0,0.0,47,0.00,,,0.00,WUHU216HW,2013-02-27 14:55:00,
2013-02-27 07:01:00,43.4,23.9,30.27,North,0,0.0,0.0,46,0.00,,,0.00,WUHU216HW,2013-02-27 15:01:00,
2013-02-27 07:06:00,44.0,25.0,30.27,North,0,0.0,0.0,47,0.00,,,0.00,WUHU216HW,2013-02-27 15:06:00,
2013-02-27 07:11:00,44.3,24.2,30.27,North,0,0.0,0.0,45,0.00,,,0.00,WUHU216HW,2013-02-27 15:11:00,
2013-02-27 07:16:00,44.5,24.9,30.28,North,0,0.0,0.0,46,0.00,,,0.00,WUHU216HW,2013-02-27 15:16:00,
2013-02-27 07:21:00,45.1,25.4,30.28,North,0,0.0,0.0,46,0.00,,,0.00,WUHU216HW,2013-02-27 15:21:00,
2013-02-27 07:26:00,45.5,25.2,30.28,North,0,0.0,0.0,45,0.00,,,0.00,WUHU216HW,2013-02-27 15:26:00,
2013-02-27 07:31:00,45.9,25.6,30.28,North,0,0.0,0.0,45,0.00,,,0.00,WUHU216HW,2013-02-27 15:31:00,
2013-02-27 07:36:00,46.4,26.1,30.28,North,0,0.0,0.0,45,0.00,,,0.00,WUHU216HW,2013-02-27 15:36:00,
2013-02-27 07:41:00,46.2,26.5,30.28,North,0,0.0,0.0,46,0.00,,,0.00,WUHU216HW,2013-02-27 15:41:00,
2013-02-27 07:47:00,46.7,27.4,30.29,North,0,0.0,0.0,47,0.00,,,0.00,WUHU216HW,2013-02-27 15:47:00,
2013-02-27 07:52:00,47.2,27.9,30.29,North,0,0.0,0.0,47,0.00,,,0.00,WUHU216HW,2013-02-27 15:52:00,
2013-02-27 07:57:00,47.8,27.4,30.29,North,0,0.0,0.0,45,0.00,,,0.00,WUHU216HW,2013-02-27 15:57:00,
2013-02-27 08:02:00,48.3,28.4,30.29,North,0,0.0,0.0,46,0.00,,,0.00,WUHU216HW,2013-02-27 16:02:00,
2013-02-27 08:07:00,48.3,28.4,30.29,North,0,0.0,0.0,46,0.00,,,0.00,WUHU216HW,2013-02-27 16:07:00,
2013-02-27 08:12:00,48.9,28.3,30.30,North,0,0.0,0.0,45,0.00,,,0.00,WUHU216HW,2013-02-27 16:12:00,
2013-02-27 08:17:00,49.1,28.5,30.30,North,0,0.0,0.0,45,0.00,,,0.00,WUHU216HW,2013-02-27 16:17:00,
2013-02-27 08:22:00,49.1,30.2,30.30,North,0,0.0,0.0,48,0.00,,,0.00,WUHU216HW,2013-02-27 16:22:00,
2013-02-27 08:27:00,49.5,30.0,30.30,North,0,0.0,0.0,47,0.00,,,0.00,WUHU216HW,2013-02-27 16:27:00,
2013-02-27 08:32:00,49.5,30.1,30.31,North,0,0.0,0.0,47,0.00,,,0.00,WUHU216HW,2013-02-27 16:32:00,
2013-02-27 08:38:00,49.8,30.3,30.31,North,0,0.0,0.0,47,0.00,,,0.00,WUHU216HW,2013-02-27 16:38:00,
2013-02-27 08:43:00,50.8,31.7,30.31,North,0,0.0,0.0,48,0.00,,,0.00,WUHU216HW,2013-02-27 16:43:00,
2013-02-27 08:48:00,51.2,32.6,30.31,North,0,0.0,0.0,49,0.00,,,0.00,WUHU216HW,2013-02-27 16:48:00,
2013-02-27 08:53:00,51.7,33.1,30.32,North,0,0.0,0.0,49,0.00,,,0.00,WUHU216HW,2013-02-27 16:53:00,
2013-02-27 08:58:00,51.9,34.9,30.32,North,0,0.0,0.0,52,0.00,,,0.00,WUHU216HW,2013-02-27 16:58:00,
2013-02-27 09:03:00,52.0,34.9,30.32,North,0,0.0,0.0,52,0.00,,,0.00,WUHU216HW,2013-02-27 17:03:00,
2013-02-27 09:08:00,52.4,33.7,30.32,North,0,0.0,0.0,49,0.00,,,0.00,WUHU216HW,2013-02-27 17:08:00,
2013-02-27 09:13:00,52.6,36.0,30.33,North,0,0.0,0.0,53,0.00,,,0.00,WUHU216HW,2013-02-27 17:13:00,
2013-02-27 09:18:00,52.9,35.8,30.32,North,0,0.0,0.0,52,0.00,,,0.00,WUHU216HW,2013-02-27 17:18:00,
2013-02-27 09:23:00,53.2,35.5,30.32,North,0,0.0,0.0,51,0.00,,,0.00,WUHU216HW,2013-02-27 17:23:00,
2013-02-27 09:29:00,53.9,36.2,30.33,North,0,0.0,0.0,51,0.00,,,0.00,WUHU216HW,2013-02-27 17:29:00,
2013-02-27 09:34:00,54.3,33.9,30.33,North,0,0.0,0.0,46,0.00,,,0.00,WUHU216HW,2013-02-27 17:34:00,
2013-02-27 09:39:00,54.8,34.3,30.32,North,0,0.0,0.0,46,0.00,,,0.00,WUHU216HW,2013-02-27 17:39:00,
2013-02-27 09:44:00,55.4,32.0,30.33,North,0,0.0,0.0,41,0.00,,,0.00,WUHU216HW,2013-02-27 17:44:00,
2013-02-27 09:49:00,55.6,32.1,30.32,North,0,0.0,0.0,41,0.00,,,0.00,WUHU216HW,2013-02-27 17:49:00,
2013-02-27 09:54:00,57.3,33.0,30.32,North,0,0.0,0.0,40,0.00,,,0.00,WUHU216HW,2013-02-27 17:54:00,
2013-02-27 09:59:00,58.7,33.6,30.32,North,0,0.0,0.0,39,0.00,,,0.00,WUHU216HW,2013-02-27 17:59:00,
2013-02-27 10:04:00,59.1,32.7,30.32,North,0,0.0,0.0,37,0.00,,,0.00,WUHU216HW,2013-02-27 18:04:00,
2013-02-27 10:09:00,58.5,34.1,30.32,North,0,0.0,0.0,40,0.00,,,0.00,WUHU216HW,2013-02-27 18:09:00,
2013-02-27 10:14:00,58.6,34.2,30.32,North,0,0.0,0.0,40,0.00,,,0.00,WUHU216HW,2013-02-27 18:14:00,
2013-02-27 10:19:00,59.2,32.0,30.32,North,0,0.0,0.0,36,0.00,,,0.00,WUHU216HW,2013-02-27 18:19:00,
2013-02-27 10:25:00,59.2,32.7,30.32,North,0,0.0,0.0,37,0.00,,,0.00,WUHU216HW,2013-02-27 18:25:00,
2013-02-27 10:30:00,59.2,32.8,30.32,North,0,0.0,0.0,37,0.00,,,0.00,WUHU216HW,2013-02-27 18:30:00,
2013-02-27 10:35:00,58.4,33.4,30.32,North,0,0.0,0.0,39,0.00,,,0.00,WUHU216HW,2013-02-27 18:35:00,
2013-02-27 10:40:00,58.2,33.8,30.32,North,0,0.0,0.0,40,0.00,,,0.00,WUHU216HW,2013-02-27 18:40:00,
2013-02-27 10:45:00,57.8,33.4,30.32,North,0,0.0,0.0,40,0.00,,,0.00,WUHU216HW,2013-02-27 18:45:00,
2013-02-27 10:50:00,58.0,34.3,30.32,North,0,0.0,0.0,41,0.00,,,0.00,WUHU216HW,2013-02-27 18:50:00,
2013-02-27 10:55:00,58.4,33.4,30.32,North,0,0.0,0.0,39,0.00,,,0.00,WUHU216HW,2013-02-27 18:55:00,
2013-02-27 11:00:00,58.5,33.5,30.32,North,0,0.0,0.0,39,0.00,,,0.00,WUHU216HW,2013-02-27 19:00:00,
2013-02-27 11:05:00,59.0,34.5,30.32,North,0,0.0,0.0,40,0.00,,,0.00,WUHU216HW,2013-02-27 19:05:00,
2013-02-27 11:10:00,59.0,33.9,30.32,North,0,0.0,0.0,39,0.00,,,0.00,WUHU216HW,2013-02-27 19:10:00,
2013-02-27 11:15:00,59.0,33.2,30.32,North,0,0.0,0.0,38,0.00,,,0.00,WUHU216HW,2013-02-27 19:15:00,
2013-02-27 11:20:00,59.4,33.6,30.32,North,0,0.0,0.0,38,0.00,,,0.00,WUHU216HW,2013-02-27 19:20:00,
2013-02-27 11:25:00,59.4,33.6,30.32,North,0,0.0,0.0,38,0.00,,,0.00,WUHU216HW,2013-02-27 19:25:00,
2013-02-27 11:30:00,60.2,29.2,30.32,North,0,0.0,0.0,31,0.00,,,0.00,WUHU216HW,2013-02-27 19:30:00,
2013-02-27 11:35:00,60.4,30.1,30.32,North,0,0.0,0.0,32,0.00,,,0.00,WUHU216HW,2013-02-27 19:35:00,
2013-02-27 11:40:00,60.5,31.0,30.32,North,0,0.0,0.0,33,0.00,,,0.00,WUHU216HW,2013-02-27 19:40:00,
2013-02-27 11:46:00,60.9,29.8,30.32,North,0,0.0,0.0,31,0.00,,,0.00,WUHU216HW,2013-02-27 19:46:00,
2013-02-27 11:51:00,61.4,31.1,30.32,North,0,0.0,0.0,32,0.00,,,0.00,WUHU216HW,2013-02-27 19:51:00,
2013-02-27 11:56:00,61.4,31.8,30.32,North,0,0.0,0.0,33,0.00,,,0.00,WUHU216HW,2013-02-27 19:56:00,
2013-02-27 12:01:00,61.6,34.2,30.32,North,0,0.0,0.0,36,0.00,,,0.00,WUHU216HW,2013-02-27 20:01:00,
2013-02-27 12:06:00,62.4,34.1,30.32,North,0,0.0,0.0,35,0.00,,,0.00,WUHU216HW,2013-02-27 20:06:00,
2013-02-27 12:11:00,62.8,35.2,30.32,North,0,0.0,0.0,36,0.00,,,0.00,WUHU216HW,2013-02-27 20:11:00,
2013-02-27 12:16:00,63.0,33.2,30.32,North,0,0.0,0.0,33,0.00,,,0.00,WUHU216HW,2013-02-27 20:16:00,
2013-02-27 12:21:00,63.5,32.1,30.32,North,0,0.0,0.0,31,0.00,,,0.00,WUHU216HW,2013-02-27 20:21:00,
2013-02-27 12:26:00,63.9,33.3,30.31,North,0,0.0,0.0,32,0.00,,,0.00,WUHU216HW,2013-02-27 20:26:00,
2013-02-27 12:31:00,63.7,32.3,30.31,North,0,0.0,0.0,31,0.00,,,0.00,WUHU216HW,2013-02-27 20:31:00,
2013-02-27 12:36:00,63.0,33.3,30.31,North,0,0.0,0.0,33,0.00,,,0.00,WUHU216HW,2013-02-27 20:36:00,
2013-02-27 12:41:00,62.9,33.8,30.30,North,0,0.0,0.0,34,0.00,,,0.00,WUHU216HW,2013-02-27 20:41:00,
2013-02-27 12:46:00,63.3,34.9,30.30,North,0,0.0,0.0,35,0.00,,,0.00,WUHU216HW,2013-02-27 20:46:00,
2013-02-27 12:51:00,63.4,34.3,30.30,North,0,0.0,0.0,34,0.00,,,0.00,WUHU216HW,2013-02-27 20:51:00,
2013-02-27 12:57:00,63.3,33.5,30.30,North,0,0.0,0.0,33,0.00,,,0.00,WUHU216HW,2013-02-27 20:57:00,
2013-02-27 13:02:00,63.3,34.2,30.30,North,0,0.0,0.0,34,0.00,,,0.00,WUHU216HW,2013-02-27 21:02:00,
2013-02-27 13:07:00,63.6,33.8,30.30,North,0,0.0,0.0,33,0.00,,,0.00,WUHU216HW,2013-02-27 21:07:00,
2013-02-27 13:12:00,63.6,33.8,30.30,North,0,0.0,0.0,33,0.00,,,0.00,WUHU216HW,2013-02-27 21:12:00,
2013-02-27 13:17:00,63.6,33.8,30.30,North,0,0.0,0.0,33,0.00,,,0.00,WUHU216HW,2013-02-27 21:17:00,
2013-02-27 13:22:00,64.0,34.9,30.30,North,0,0.0,0.0,34,0.00,,,0.00,WUHU216HW,2013-02-27 21:22:00,
2013-02-27 13:27:00,64.0,34.9,30.29,North,0,0.0,0.0,34,0.00,,,0.00,WUHU216HW,2013-02-27 21:27:00,
2013-02-27 13:32:00,64.0,34.1,30.29,North,0,0.0,0.0,33,0.00,,,0.00,WUHU216HW,2013-02-27 21:32:00,
2013-02-27 13:37:00,64.3,34.3,30.29,North,0,0.0,0.0,33,0.00,,,0.00,WUHU216HW,2013-02-27 21:37:00,
2013-02-27 13:42:00,64.4,34.4,30.29,North,0,0.0,0.0,33,0.00,,,0.00,WUHU216HW,2013-02-27 21:42:00,
2013-02-27 13:47:00,64.8,35.5,30.29,North,0,0.0,0.0,34,0.00,,,0.00,WUHU216HW,2013-02-27 21:47:00,
2013-02-27 13:52:00,65.0,35.7,30.29,North,0,0.0,0.0,34,0.00,,,0.00,WUHU216HW,2013-02-27 21:52:00,
2013-02-27 13:57:00,65.0,35.7,30.29,North,0,0.0,0.0,34,0.00,,,0.00,WUHU216HW,2013-02-27 21:57:00,
2013-02-27 14:02:00,65.5,35.4,30.28,North,0,0.0,0.0,33,0.00,,,0.00,WUHU216HW,2013-02-27 22:02:00,
2013-02-27 14:08:00,64.8,34.8,30.28,North,0,0.0,0.0,33,0.00,,,0.00,WUHU216HW,2013-02-27 22:08:00,
2013-02-27 14:13:00,64.4,35.2,30.28,North,0,0.0,0.0,34,0.00,,,0.00,WUHU216HW,2013-02-27 22:13:00,
2013-02-27 14:18:00,64.1,34.9,30.29,North,0,0.0,0.0,34,0.00,,,0.00,WUHU216HW,2013-02-27 22:18:00,
2013-02-27 14:23:00,64.1,36.4,30.29,North,0,0.0,0.0,36,0.00,,,0.00,WUHU216HW,2013-02-27 22:23:00,
2013-02-27 14:28:00,64.4,35.2,30.29,North,0,0.0,0.0,34,0.00,,,0.00,WUHU216HW,2013-02-27 22:28:00,
2013-02-27 14:33:00,64.4,36.7,30.28,North,0,0.0,0.0,36,0.00,,,0.00,WUHU216HW,2013-02-27 22:33:00,
2013-02-27 14:38:00,64.4,35.2,30.28,North,0,0.0,0.0,34,0.00,,,0.00,WUHU216HW,2013-02-27 22:38:00,
2013-02-27 14:43:00,64.6,37.6,30.28,North,0,0.0,0.0,37,0.00,,,0.00,WUHU216HW,2013-02-27 22:43:00,
2013-02-27 14:48:00,64.8,37.7,30.28,North,0,0.0,0.0,37,0.00,,,0.00,WUHU216HW,2013-02-27 22:48:00,
2013-02-27 14:53:00,64.6,37.6,30.28,North,0,0.0,0.0,37,0.00,,,0.00,WUHU216HW,2013-02-27 22:53:00,
2013-02-27 14:58:00,65.5,39.0,30.28,North,0,0.0,0.0,38,0.00,,,0.00,WUHU216HW,2013-02-27 22:58:00,
2013-02-27 15:03:00,65.5,38.4,30.28,North,0,0.0,0.0,37,0.00,,,0.00,WUHU216HW,2013-02-27 23:03:00,
2013-02-27 15:08:00,65.3,38.2,30.28,North,0,0.0,0.0,37,0.00,,,0.00,WUHU216HW,2013-02-27 23:08:00,
2013-02-27 15:13:00,65.3,38.2,30.28,North,0,0.0,0.0,37,0.00,,,0.00,WUHU216HW,2013-02-27 23:13:00,
2013-02-27 15:18:00,65.2,38.1,30.28,North,0,0.0,0.0,37,0.00,,,0.00,WUHU216HW,2013-02-27 23:18:00,
2013-02-27 15:23:00,65.2,38.1,30.28,North,0,0.0,0.0,37,0.00,,,0.00,WUHU216HW,2013-02-27 23:23:00,
2013-02-27 15:28:00,65.0,37.9,30.28,North,0,0.0,0.0,37,0.00,,,0.00,WUHU216HW,2013-02-27 23:28:00,
2013-02-27 15:34:00,65.2,38.8,30.28,North,0,0.0,0.0,38,0.00,,,0.00,WUHU216HW,2013-02-27 23:34:00,
2013-02-27 15:39:00,65.0,38.6,30.28,North,0,0.0,0.0,38,0.00,,,0.00,WUHU216HW,2013-02-27 23:39:00,
2013-02-27 15:44:00,64.8,37.7,30.28,North,0,0.0,0.0,37,0.00,,,0.00,WUHU216HW,2013-02-27 23:44:00,
2013-02-27 15:49:00,64.8,38.4,30.28,North,0,0.0,0.0,38,0.00,,,0.00,WUHU216HW,2013-02-27 23:49:00,
2013-02-27 15:54:00,64.6,37.5,30.28,North,0,0.0,0.0,37,0.00,,,0.00,WUHU216HW,2013-02-27 23:54:00,
2013-02-27 15:59:00,64.3,37.9,30.28,North,0,0.0,0.0,38,0.00,,,0.00,WUHU216HW,2013-02-27 23:59:00,
2013-02-27 16:04:00,64.0,38.4,30.28,North,0,0.0,0.0,39,0.00,,,0.00,WUHU216HW,2013-02-28 00:04:00,
2013-02-27 16:09:00,63.8,38.2,30.28,North,0,0.0,0.0,39,0.00,,,0.00,WUHU216HW,2013-02-28 00:09:00,
2013-02-27 16:14:00,63.6,38.0,30.28,North,0,0.0,0.0,39,0.00,,,0.00,WUHU216HW,2013-02-28 00:14:00,
2013-02-27 16:19:00,63.6,38.0,30.28,North,0,0.0,0.0,39,0.00,,,0.00,WUHU216HW,2013-02-28 00:19:00,
2013-02-27 16:24:00,63.4,37.9,30.28,North,0,0.0,0.0,39,0.00,,,0.00,WUHU216HW,2013-02-28 00:24:00,
2013-02-27 16:30:00,63.1,37.6,30.28,North,0,0.0,0.0,39,0.00,,,0.00,WUHU216HW,2013-02-28 00:30:00,
2013-02-27 16:35:00,62.9,38.0,30.28,North,0,0.0,0.0,40,0.00,,,0.00,WUHU216HW,2013-02-28 00:35:00,
2013-02-27 16:40:00,62.7,37.9,30.28,North,0,0.0,0.0,40,0.00,,,0.00,WUHU216HW,2013-02-28 00:40:00,
2013-02-27 16:45:00,62.5,38.3,30.28,North,0,0.0,0.0,41,0.00,,,0.00,WUHU216HW,2013-02-28 00:45:00,
2013-02-27 16:50:00,62.4,39.5,30.28,North,0,0.0,0.0,43,0.00,,,0.00,WUHU216HW,2013-02-28 00:50:00,
2013-02-27 16:55:00,62.2,38.0,30.28,North,0,0.0,0.0,41,0.00,,,0.00,WUHU216HW,2013-02-28 00:55:00,
2013-02-27 17:00:00,61.7,38.3,30.28,North,0,0.0,0.0,42,0.00,,,0.00,WUHU216HW,2013-02-28 01:00:00,
2013-02-27 17:05:00,61.7,38.3,30.28,North,0,0.0,0.0,42,0.00,,,0.00,WUHU216HW,2013-02-28 01:05:00,
2013-02-27 17:10:00,61.5,38.1,30.28,North,0,0.0,0.0,42,0.00,,,0.00,WUHU216HW,2013-02-28 01:10:00,
2013-02-27 17:15:00,61.4,38.6,30.28,North,0,0.0,0.0,43,0.00,,,0.00,WUHU216HW,2013-02-28 01:15:00,
2013-02-27 17:20:00,61.0,39.4,30.28,North,0,0.0,0.0,45,0.00,,,0.00,WUHU216HW,2013-02-28 01:20:00,
2013-02-27 17:26:00,60.8,38.6,30.28,North,0,0.0,0.0,44,0.00,,,0.00,WUHU216HW,2013-02-28 01:26:00,
2013-02-27 17:31:00,60.6,39.0,30.29,North,0,0.0,0.0,45,0.00,,,0.00,WUHU216HW,2013-02-28 01:31:00,
2013-02-27 17:36:00,60.2,38.7,30.29,North,0,0.0,0.0,45,0.00,,,0.00,WUHU216HW,2013-02-28 01:36:00,
2013-02-27 17:41:00,59.6,38.2,30.29,North,0,0.0,0.0,45,0.00,,,0.00,WUHU216HW,2013-02-28 01:41:00,
2013-02-27 17:46:00,59.3,39.0,30.29,North,0,0.0,0.0,47,0.00,,,0.00,WUHU216HW,2013-02-28 01:46:00,
2013-02-27 17:51:00,58.7,38.5,30.28,North,0,0.0,0.0,47,0.00,,,0.00,WUHU216HW,2013-02-28 01:51:00,
2013-02-27 17:56:00,58.6,39.5,30.29,North,0,0.0,0.0,49,0.00,,,0.00,WUHU216HW,2013-02-28 01:56:00,
2013-02-27 18:01:00,58.2,39.1,30.29,North,0,0.0,0.0,49,0.00,,,0.00,WUHU216HW,2013-02-28 02:01:00,
2013-02-27 18:06:00,57.9,38.3,30.29,North,0,0.0,0.0,48,0.00,,,0.00,WUHU216HW,2013-02-28 02:06:00,
2013-02-27 18:11:00,57.7,38.7,30.29,North,0,0.0,0.0,49,0.00,,,0.00,WUHU216HW,2013-02-28 02:11:00,
2013-02-27 18:16:00,57.6,39.1,30.29,North,0,0.0,0.0,50,0.00,,,0.00,WUHU216HW,2013-02-28 02:16:00,
2013-02-27 18:22:00,57.6,39.1,30.30,North,0,0.0,0.0,50,0.00,,,0.00,WUHU216HW,2013-02-28 02:22:00,
2013-02-27 18:27:00,57.6,39.1,30.30,North,0,0.0,0.0,50,0.00,,,0.00,WUHU216HW,2013-02-28 02:27:00,
2013-02-27 18:32:00,57.6,39.1,30.30,North,0,0.0,0.0,50,0.00,,,0.00,WUHU216HW,2013-02-28 02:32:00,
2013-02-27 18:37:00,57.5,39.0,30.31,North,0,0.0,0.0,50,0.00,,,0.00,WUHU216HW,2013-02-28 02:37:00,
2013-02-27 18:42:00,57.5,39.0,30.31,North,0,0.0,0.0,50,0.00,,,0.00,WUHU216HW,2013-02-28 02:42:00,
2013-02-27 18:47:00,57.6,39.1,30.31,North,0,0.0,0.0,50,0.00,,,0.00,WUHU216HW,2013-02-28 02:47:00,
2013-02-27 18:52:00,57.5,39.0,30.31,North,0,0.0,0.0,50,0.00,,,0.00,WUHU216HW,2013-02-28 02:52:00,
2013-02-27 18:57:00,57.5,39.0,30.31,North,0,0.0,0.0,50,0.00,,,0.00,WUHU216HW,2013-02-28 02:57:00,
2013-02-27 19:02:00,57.2,38.8,30.31,North,0,0.0,0.0,50,0.00,,,0.00,WUHU216HW,2013-02-28 03:02:00,
2013-02-27 19:07:00,57.0,38.6,30.32,North,0,0.0,0.0,50,0.00,,,0.00,WUHU216HW,2013-02-28 03:07:00,
2013-02-27 19:12:00,57.0,38.5,30.32,North,0,0.0,0.0,50,0.00,,,0.00,WUHU216HW,2013-02-28 03:12:00,
2013-02-27 19:17:00,56.8,38.9,30.32,North,0,0.0,0.0,51,0.00,,,0.00,WUHU216HW,2013-02-28 03:17:00,
2013-02-27 19:22:00,56.6,38.7,30.32,North,0,0.0,0.0,51,0.00,,,0.00,WUHU216HW,2013-02-28 03:22:00,
2013-02-27 19:28:00,56.4,38.5,30.32,North,0,0.0,0.0,51,0.00,,,0.00,WUHU216HW,2013-02-28 03:28:00,
2013-02-27 19:33:00,56.2,38.3,30.32,North,0,0.0,0.0,51,0.00,,,0.00,WUHU216HW,2013-02-28 03:33:00,
2013-02-27 19:38:00,56.2,38.8,30.33,North,0,0.0,0.0,52,0.00,,,0.00,WUHU216HW,2013-02-28 03:38:00,
2013-02-27 19:43:00,56.2,38.8,30.33,North,0,0.0,0.0,52,0.00,,,0.00,WUHU216HW,2013-02-28 03:43:00,
2013-02-27 19:48:00,56.0,38.6,30.33,North,0,0.0,0.0,52,0.00,,,0.00,WUHU216HW,2013-02-28 03:48:00,
2013-02-27 19:53:00,55.7,38.4,30.33,North,0,0.0,0.0,52,0.00,,,0.00,WUHU216HW,2013-02-28 03:53:00,
2013-02-27 19:58:00,55.5,38.2,30.33,North,0,0.0,0.0,52,0.00,,,0.00,WUHU216HW,2013-02-28 03:58:00,
2013-02-27 20:03:00,55.3,38.5,30.33,North,0,0.0,0.0,53,0.00,,,0.00,WUHU216HW,2013-02-28 04:03:00,
2013-02-27 20:08:00,55.3,38.5,30.34,North,0,0.0,0.0,53,0.00,,,0.00,WUHU216HW,2013-02-28 04:08:00,
2013-02-27 20:13:00,55.2,38.4,30.34,North,0,0.0,0.0,53,0.00,,,0.00,WUHU216HW,2013-02-28 04:13:00,
2013-02-27 20:18:00,54.8,39.0,30.34,North,0,0.0,0.0,55,0.00,,,0.00,WUHU216HW,2013-02-28 04:18:00,
2013-02-27 20:23:00,54.6,38.3,30.34,North,0,0.0,0.0,54,0.00,,,0.00,WUHU216HW,2013-02-28 04:23:00,
2013-02-27 20:28:00,54.3,38.1,30.34,North,0,0.0,0.0,54,0.00,,,0.00,WUHU216HW,2013-02-28 04:28:00,
2013-02-27 20:33:00,54.3,38.0,30.34,North,0,0.0,0.0,54,0.00,,,0.00,WUHU216HW,2013-02-28 04:33:00,
2013-02-27 20:38:00,54.1,37.9,30.34,North,0,0.0,0.0,54,0.00,,,0.00,WUHU216HW,2013-02-28 04:38:00,
2013-02-27 20:43:00,54.1,37.9,30.34,North,0,0.0,0.0,54,0.00,,,0.00,WUHU216HW,2013-02-28 04:43:00,
2013-02-27 20:48:00,53.9,38.1,30.34,North,0,0.0,0.0,55,0.00,,,0.00,WUHU216HW,2013-02-28 04:48:00,
2013-02-27 20:53:00,53.8,38.1,30.35,North,0,0.0,0.0,55,0.00,,,0.00,WUHU216HW,2013-02-28 04:53:00,
2013-02-27 20:58:00,53.6,37.9,30.35,North,0,0.0,0.0,55,0.00,,,0.00,WUHU216HW,2013-02-28 04:58:00,
2013-02-27 21:00:00,53.6,37.9,30.35,North,0,0.0,0.0,55,0.00,,,0.00,WUHU216HW,2013-02-28 05:00:00,
2013-02-27 21:01:00,53.4,37.7,30.35,North,0,0.0,0.0,55,0.00,,,0.00,WUHU216HW,2013-02-28 05:01:00,
2013-02-27 21:06:00,53.4,37.7,30.35,North,0,0.0,0.0,55,0.00,,,0.00,WUHU216HW,2013-02-28 05:06:00,
2013-02-27 21:11:00,53.4,37.7,30.35,North,0,0.0,0.0,55,0.00,,,0.00,WUHU216HW,2013-02-28 05:11:00,
2013-02-27 21:16:00,53.1,37.5,30.35,North,0,0.0,0.0,55,0.00,,,0.00,WUHU216HW,2013-02-28 05:16:00,
2013-02-27 21:21:00,53.0,37.3,30.35,North,0,0.0,0.0,55,0.00,,,0.00,WUHU216HW,2013-02-28 05:21:00,
2013-02-27 21:27:00,53.0,37.3,30.35,North,0,0.0,0.0,55,0.00,,,0.00,WUHU216HW,2013-02-28 05:27:00,
2013-02-27 21:32:00,52.8,37.1,30.35,North,0,0.0,0.0,55,0.00,,,0.00,WUHU216HW,2013-02-28 05:32:00,
2013-02-27 21:37:00,52.6,37.4,30.36,North,0,0.0,0.0,56,0.00,,,0.00,WUHU216HW,2013-02-28 05:37:00,
2013-02-27 21:42:00,52.6,37.4,30.36,North,0,0.0,0.0,56,0.00,,,0.00,WUHU216HW,2013-02-28 05:42:00,
2013-02-27 21:47:00,52.1,37.4,30.36,North,0,0.0,0.0,57,0.00,,,0.00,WUHU216HW,2013-02-28 05:47:00,
2013-02-27 21:52:00,52.0,36.9,30.36,North,0,0.0,0.0,56,0.00,,,0.00,WUHU216HW,2013-02-28 05:52:00,
2013-02-27 21:57:00,51.6,36.5,30.36,North,0,0.0,0.0,56,0.00,,,0.00,WUHU216HW,2013-02-28 05:57:00,
2013-02-27 22:02:00,51.4,36.3,30.36,North,0,0.0,0.0,56,0.00,,,0.00,WUHU216HW,2013-02-28 06:02:00,
2013-02-27 22:07:00,51.2,36.1,30.36,North,0,0.0,0.0,56,0.00,,,0.00,WUHU216HW,2013-02-28 06:07:00,
2013-02-27 22:12:00,51.1,36.0,30.36,North,0,0.0,0.0,56,0.00,,,0.00,WUHU216HW,2013-02-28 06:12:00,
2013-02-27 22:17:00,51.0,35.9,30.36,North,0,0.0,0.0,56,0.00,,,0.00,WUHU216HW,2013-02-28 06:17:00,
2013-02-27 22:22:00,51.0,35.9,30.36,North,0,0.0,0.0,56,0.00,,,0.00,WUHU216HW,2013-02-28 06:22:00,
2013-02-27 22:28:00,51.1,36.0,30.37,North,0,0.0,0.0,56,0.00,,,0.00,WUHU216HW,2013-02-28 06:28:00,
2013-02-27 22:33:00,51.1,35.0,30.37,North,0,0.0,0.0,54,0.00,,,0.00,WUHU216HW,2013-02-28 06:33:00,
2013-02-27 22:38:00,51.0,34.9,30.37,North,0,0.0,0.0,54,0.00,,,0.00,WUHU216HW,2013-02-28 06:38:00,
2013-02-27 22:43:00,50.8,34.7,30.37,North,0,0.0,0.0,54,0.00,,,0.00,WUHU216HW,2013-02-28 06:43:00,
2013-02-27 22:48:00,50.7,34.2,30.37,North,0,0.0,0.0,53,0.00,,,0.00,WUHU216HW,2013-02-28 06:48:00,
2013-02-27 22:53:00,50.7,34.2,30.37,North,0,0.0,0.0,53,0.00,,,0.00,WUHU216HW,2013-02-28 06:53:00,
2013-02-27 22:58:00,50.9,33.9,30.37,North,0,0.0,0.0,52,0.00,,,0.00,WUHU216HW,2013-02-28 06:58:00,
2013-02-27 23:03:00,50.9,34.4,30.37,North,0,0.0,0.0,53,0.00,,,0.00,WUHU216HW,2013-02-28 07:03:00,
2013-02-27 23:08:00,50.9,34.4,30.37,North,0,0.0,0.0,53,0.00,,,0.00,WUHU216HW,2013-02-28 07:08:00,
2013-02-27 23:13:00,50.9,34.4,30.37,North,0,0.0,0.0,53,0.00,,,0.00,WUHU216HW,2013-02-28 07:13:00,
2013-02-27 23:19:00,50.8,34.8,30.37,North,0,0.0,0.0,54,0.00,,,0.00,WUHU216HW,2013-02-28 07:19:00,
2013-02-27 23:24:00,50.8,34.3,30.37,North,0,0.0,0.0,53,0.00,,,0.00,WUHU216HW,2013-02-28 07:24:00,
2013-02-27 23:29:00,50.8,34.3,30.37,North,0,0.0,0.0,53,0.00,,,0.00,WUHU216HW,2013-02-28 07:29:00,
2013-02-27 23:34:00,50.6,34.6,30.37,North,0,0.0,0.0,54,0.00,,,0.00,WUHU216HW,2013-02-28 07:34:00,
2013-02-27 23:39:00,50.6,34.1,30.37,North,0,0.0,0.0,53,0.00,,,0.00,WUHU216HW,2013-02-28 07:39:00,
2013-02-27 23:44:00,50.4,33.9,30.37,North,0,0.0,0.0,53,0.00,,,0.00,WUHU216HW,2013-02-28 07:44:00,
2013-02-27 23:49:00,50.2,33.7,30.37,North,0,0.0,0.0,53,0.00,,,0.00,WUHU216HW,2013-02-28 07:49:00,
2013-02-27 23:54:00,50.2,33.2,30.37,North,0,0.0,0.0,52,0.00,,,0.00,WUHU216HW,2013-02-28 07:54:00,
2013-02-27 23:59:00,50.0,33.0,30.37,North,0,0.0,0.0,52,0.00,,,0.00,WUHU216HW,2013-02-28 07:59:00,